Regional Weather Roundup
Issued by NWS

Home | Current Version | Previous Version | Graphics & Text | Print | Product List | Glossary On
Versions: 1 2 3 4 5 6 7 8 9 10 11 12 13 14 15 16 17 18 19 20 21 22 23 24 25 26 27 28 29 30 31 32 33 34 35 36 37 38 39 40 41 42 43 44 45 46 47 48 49 50
000
ASUS43 KMKX 290300
RWRWI

WISCONSIN REGIONAL WEATHER ROUNDUP
NATIONAL WEATHER SERVICE MILWAUKEE/SULLIVAN WI
1000 PM CDT FRI AUG 28 2015

NOTE: "FAIR" INDICATES FEW OR NO CLOUDS BELOW 12,000 FEET WITH NO
SIGNIFICANT WEATHER AND/OR OBSTRUCTIONS TO VISIBILITY.

WIZ001-002-006>008-014>016-023>028-290400-
NORTHWEST WISCONSIN

CITY           SKY/WX    TMP DP  RH WIND       PRES   REMARKS
SUPERIOR ARPT  CLEAR     66  62  85 SW6       29.99R
ASHLAND        CLEAR     66  63  90 S9        30.00S
HAYWARD        CLEAR     65  60  84 SW10      30.06R
SIREN          CLEAR     65  58  80 S9        30.05R
CUMBERLAND     PTCLDY    59  55  88 CALM      30.08R
RICE LAKE      MOCLDY    62  58  87 SE8       30.07F
CHETEK         CLOUDY   N/A N/A N/A SE8       30.08R
LADYSMITH      MOCLDY    61  57  86 S5        30.10S
EAU CLAIRE     NOT AVBL
MENOMONIE      CLEAR     58  57  95 CALM      30.07R
NEW RICHMOND   CLEAR     59  55  87 CALM      30.06S
OSCEOLA        CLEAR     61  61 100 CALM      30.09R
$$

WIZ003>005-009-010-017-018-290400-
NORTH CENTRAL WISCONSIN

CITY           SKY/WX    TMP DP  RH WIND       PRES   REMARKS
MANITOWISH WTR CLEAR     62  62 100 S6        30.05F
ARBOR VITAE    CLEAR     62  60  94 S6        30.06F
WOODRUFF       CLEAR     62  60  94 S6        30.06F
RHINELANDER    CLOUDY    63  60  90 SW8       30.09S
EAGLE RIVER    PTCLDY    62  61  96 CALM      30.06F
LAND O LAKES   PTCLDY    63  60  91 CALM      30.06F
PHILLIPS       CLOUDY    63  60  92 SW13G20   30.08S
TOMAHAWK       LGT RAIN  62  59  92 CALM      30.09S
MEDFORD        MOCLDY    58  57  96 S7        30.10S
MERRILL        CLOUDY    60  60  99 SW8       30.12R FOG
$$

WIZ029-030-035-036-043>047-290400-
CENTRAL WISCONSIN

CITY           SKY/WX    TMP DP  RH WIND       PRES   REMARKS
WAUSAU         CLOUDY    61  59  93 S8        30.10R
MOSINEE        NOT AVBL
MARSHFIELD     CLOUDY    59  54  83 SE8       30.09F
STEVENS POINT  CLOUDY    57  55  93 S8        30.13S
WAUPACA        LGT RAIN  60  59  96 S7        30.14R
WAUTOMA        NOT AVBL
WISC RAPIDS    CLOUDY    58  54  86 SE8       30.11F
CAMP DOUGLAS   CLOUDY    57  57 100 SE10      30.09R
$$

WIZ011>013-019>022-031-037>040-048>050-290400-
NORTHEAST WISCONSIN

CITY           SKY/WX    TMP DP  RH WIND       PRES   REMARKS
ANTIGO         CLOUDY    61  60  96 SW6       30.11S
SHAWANO        DRIZZLE   62  59  88 SW6       30.12R
OCONTO         CLOUDY    61  61 100 SW5       30.11R
STURGEON BAY   CLOUDY    63  59  88 SW7       30.13R
GREEN BAY      LGT RAIN  62  59  90 SW6       30.12R
MANITOWOC      NOT AVBL
APPLETON       LGT RAIN  61  61 100 SW6       30.12R
CLINTONVILLE   RAIN      59  57  94 SW6       30.13R
OSHKOSH        RAIN      60  57  89 SW5       30.14R FOG
$$

WIZ032>034-041-042-053>061-290400-
SOUTHWEST WISCONSIN

CITY           SKY/WX    TMP DP  RH WIND       PRES   REMARKS
LA CROSSE      CLOUDY    60  57  89 SE8       30.04F
SPARTA         CLOUDY    57  55  94 SE5       30.07F
VIROQUA        CLOUDY    57  57 100 E10       30.07S
BOSCOBEL       LGT RAIN  63  62  97 NE6       30.03R FOG
PRAIRIE DU CHI DRIZZLE   62  61  96 NE8       29.99F
PLATTEVILLE    CLOUDY    64  63  99 SE12      30.02F
$$

WIZ056-057-062-063-064-067-068-290400-
SOUTH CENTRAL WISCONSIN

CITY           SKY/WX    TMP DP  RH WIND       PRES   REMARKS
REEDSBURG      HVY RAIN  59  58  97 NE5       30.08R
BARABOO/DELLS  CLOUDY    58  56  92 NE9       30.09R
LONE ROCK      LGT RAIN  64  61  90 E10       30.05R
MINERAL POINT  LGT RAIN  63  63 100 SE9       30.03F
MADISON        RAIN      64  62  93 E10       30.06F FOG
MIDDLETON      CLOUDY    65  64  98 E10       30.07S
WATERTOWN      DRIZZLE   61  61 100 E5        30.08S
MONROE         RAIN      63  61  94 E7        30.07R
JANESVILLE     LGT RAIN  64  63  94 E9        30.06
$$

WIZ051-052-058>065-066-070>072-290400-
SOUTHEAST WISCONSIN

CITY           SKY/WX    TMP DP  RH WIND       PRES   REMARKS
MILWAUKEE      CLOUDY    63  60  90 N7        30.11R FOG
WAUKESHA       LGT RAIN  61  57  88 E3        30.12R
MILWAUKEE/TIMM DRIZZLE   63  57  82 CALM      30.12R
RACINE         CLOUDY    64  60  87 NE6       30.12R
BURLINGTON     CLOUDY    62  61  97 CALM      30.10R FOG
KENOSHA        CLOUDY    63  60  90 NE5       30.10R
FOND DU LAC    HVY RAIN  60  58  92 CALM      30.13R FOG
SHEBOYGAN      LGT RAIN  62  59  90 S6        30.13R
WEST BEND      LGT RAIN  59  55  88 CALM      30.11S
JUNEAU         RAIN      60  56  89 NE3       30.12R
$$

LSZ147-162-290400-
LAKE SUPERIOR

STATION/POSITION TIME  TEMP    WIND        PRES    WAVE
                       AIR SEA DIR/SP/G            HT/PER
                 (UTC) (F)     (DEG/KT/KT) (MB)    (FT/S)
W MID LAKE BUOY  0150   61 56  180/ 14/ 14 1013.8R   1
DEVILS ISLAND    0200   72     200/ 13/ 16 1014.0R
PORT WING        0200   71     190/  8/ 11 1014.9R
SAXON HARBOR     0200   71     200/ 10/ 15 1014.9
$$

LMZ867-665-643>646-290400-
LAKE MICHIGAN

STATION/POSITION TIME  TEMP    WIND        PRES    WAVE
                       AIR SEA DIR/SP/G            HT/PER
                 (UTC) (F)     (DEG/KT/KT) (MB)    (FT/S)
CHAMBERS ISLAND  0200   63     200/  9/ 15 1018.3R
S GREEN BAY BUOY 0200   63 62  240/  6/  6 1020.3R
N MID LAKE BUOY  0150   63 64  220/ 19/ 21 1017.0R   4/ 5
NORTHPORT PIER   0200   66     190/  2/  6 1017.9R
SISTER BAY       0204   66     200/  5/  6   N/A
ALGOMA LAKESHORE 0214          210/  4/  6   N/A
SHEBOYGAN LAKESH 0200   63     210/ 10/ 10 1020.1R
PORT WASHINGTON  0240   59      40/  5/  5 1020.3R
ATWATER BUOY     0200   52 48  360/  8/ 10 1020.6R
MILWAUKEE LAKESH 0200   55      90/  5/  6   N/A
S MID LAKE BUOY  0150   68 69   60/  4/  6 1019.2R   1
KENOSHA   LAKESH 0200   61      10/  3/  3 1018.6S
$$

TC  - TEMPERATURE IN CELSIUS
VSB - VISIBILITY IN STATUTE MILES
WCI - WIND CHILL INDEX
HX  - HEAT INDEX




USA.gov is the U.S. government's official web portal to all federal, state and local government web resources and services.